Location: Moscow
(55.7500°N, 37.5830°E)
Time: 08:28:49
(UTC+03:00)

SEEDS - Visible Passes

Search period start: 28 January 2022 00:00
Search period end: 07 February 2022 00:00
Orbit: 584 x 600 km, 97.6° (Epoch: 27 January)

Date Brightness Start Highest point End Pass type
(mag) Time Alt. Az. Time Alt. Az. Time Alt. Az.
28 Jan ? 04:10:42 10° NE 04:11:58 16° NE 04:11:58 16° NE visible
28 Jan ? 05:45:54 10° N 05:48:34 35° NNW 05:48:34 35° NNW visible
28 Jan ? 07:23:30 10° NNW 07:24:45 11° NW 07:25:10 11° NW visible
29 Jan ? 04:19:15 10° NNE 04:20:54 19° NE 04:20:54 19° NE visible
29 Jan ? 05:54:39 10° N 05:57:30 35° NNW 05:57:30 35° NNW visible
30 Jan ? 04:27:50 10° NNE 04:29:49 23° NE 04:29:49 23° NE visible
30 Jan ? 06:03:24 10° N 06:06:25 33° NW 06:06:25 33° NW visible
31 Jan ? 04:36:26 10° NNE 04:38:45 27° NE 04:38:45 27° NE visible
31 Jan ? 06:12:11 10° N 06:15:21 31° NW 06:15:21 31° NW visible
01 Feb ? 04:45:03 10° NNE 04:47:40 32° NE 04:47:40 32° NE visible
01 Feb ? 06:20:58 10° N 06:24:16 28° NW 06:24:16 28° NW visible
02 Feb ? 04:53:41 10° NNE 04:56:36 39° NE 04:56:36 39° NE visible
02 Feb ? 06:29:45 10° N 06:33:11 24° WNW 06:33:11 24° WNW visible
03 Feb ? 05:02:20 10° NNE 05:05:31 47° NE 05:05:31 47° NE visible
03 Feb ? 06:38:34 10° N 06:41:48 21° WNW 06:42:07 21° WNW visible
04 Feb ? 03:37:04 10° ENE 03:37:51 12° ENE 03:37:51 12° ENE visible
04 Feb ? 05:11:00 10° NNE 05:14:27 57° NNE 05:14:27 57° NNE visible
04 Feb ? 06:47:25 10° NNW 06:50:23 19° NW 06:51:03 18° WNW visible
05 Feb ? 03:45:17 10° NE 03:46:46 14° ENE 03:46:46 14° ENE visible
05 Feb ? 05:19:41 10° NNE 05:23:22 66° N 05:23:22 66° N visible
05 Feb ? 06:56:18 10° NNW 06:58:57 16° NW 06:59:58 15° WNW visible
06 Feb ? 03:53:38 10° NE 03:55:42 17° ENE 03:55:42 17° ENE visible
06 Feb ? 05:28:22 10° NNE 05:32:17 69° NNW 05:32:17 69° NNW visible
06 Feb ? 07:05:13 10° NNW 07:07:30 14° NW 07:08:53 13° WNW visible
